Temperature
19 19 19 19 19 19 19 19 19 19 19 19 19 19 19 19 19 19 19 19 19 19 19 19 18 18 18 18 18 18 18 18 18 18 18 18 18 18 18 18 18 18 18
19 19 19 19 19 19 19 19 19 19 19 19 19 19 19 19 19 19 19 19 19 19 19 19 19 18 18 18 18 18 18 18 18 18 18 18 18 18 18 18 18 18 18
19 19 19 19 19 19 19 19 19 19 19 19 19 19 19 19 19 19 19 19 19 19 19 19 19 19 19 18 18 18 18 18 18 18 18 18 18 18 18 18 18 18 18
20 19 19 19 19 19 19 19 19 19 19 19 19 19 19 19 19 19 19 19 19 19 19 19 19 19 19 18 18 18 18 18 18 18 18 18 18 18 18 18 18 18 18
20 20 20 19 19 19 19 19 19 19 19 19 19 19 19 19 19 19 19 19 19 19 19 19 19 19 18 18 18 18 18 18 18 18 18 18 18 18 18 18 18 18 18
20 20 20 20 19 19 19 19 19 19 19 19 19 19 19 19 19 19 19 19 19 19 19 19 19 19 18 18 18 18 18 18 18 18 18 18 18 18 18 18 18 18 18
20 20 20 20 20 19 19 19 19 19 19 19 19 19 19 19 19 19 19 19 19 19 19 19 19 19 18 18 18 18 18 18 18 18 18 18 18 18 18 18 18 18 18
20 20 20 20 20 19 19 19 19 19 19 19 19 19 19 19 19 19 19 19 19 19 19 19 19 19 18 18 18 18 18 18 18 18 18 18 18 18 18 18 18 18 18
20 20 20 20 20 19 19 19 19 19 19 19 19 19 19 19 19 19 19 19 19 19 19 19 19 18 18 18 18 18 18 18 18 18 18 18 18 18 18 18 18 18 18
20 20 20 20 20 20 19 19 19 19 19 19 19 19 19 19 19 19 19 19 19 19 19 19 19 18 18 18 18 18 18 18 18 18 18 18 18 18 18 18 18 18 18
20 20 20 20 20 20 20 19 19 19 19 19 19 19 19 19 19 19 19 19 19 19 19 19 19 19 18 18 18 18 18 18 18 18 18 18 18 18 18 18 18 18 18
20 20 20 20 20 20 19 20 19 19 19 19 19 19 19 19 19 19 19 19 19 19 19 19 18 18 18 19 19 19 19 18 18 19 19 18 18 18 18 18 18 18 18
20 20 20 20 20 20 20 20 20 19 19 19 19 19 19 19 19 19 19 19 19 19 19 19 19 19 19 19 19 19 19 19 19 19 19 18 18 18 18 18 18 18 18
20 20 20 20 20 20 20 20 20 19 19 19 19 19 19 19 19 19 19 19 19 19 19 19 19 19 19 19 19 19 19 19 19 19 19 18 18 18 18 18 18 18 18
21 20 20 20 20 20 20 20 20 19 19 19 19 19 19 19 19 19 19 19 19 19 19 19 19 19 19 19 19 19 19 19 19 19 19 18 18 18 18 18 18 18 18
21 21 20 20 20 20 20 20 20 19 19 19 19 19 19 19 19 19 19 19 19 19 19 19 19 19 19 19 19 19 19 19 19 19 18 18 18 18 18 18 18 18 18
21 21 21 21 20 20 20 20 20 20 19 19 19 19 19 19 19 19 19 19 19 19 19 19 19 19 19 19 19 19 19 19 19 19 18 18 18 18 18 18 18 18 18
21 21 21 21 20 20 20 20 20 19 19 19 19 19 19 19 19 19 19 19 19 19 19 19 19 19 19 19 19 19 19 19 19 18 18 18 18 18 18 18 18 18 18
22 21 21 21 20 20 20 20 20 20 19 19 19 19 19 19 19 19 19 19 19 19 19 19 19 19 19 19 19 19 19 19 18 18 18 18 18 18 18 18 18 18 18
22 22 21 21 21 20 20 20 20 20 19 19 19 19 19 19 19 19 19 19 19 19 19 19 19 19 19 19 19 19 19 19 18 18 18 18 18 18 18 18 18 18 18
22 22 21 21 21 20 20 20 20 20 19 19 19 19 19 19 19 19 19 19 19 19 19 19 19 18 18 19 19 18 18 18 18 18 18 18 18 18 18 18 18 18 18
22 22 21 21 21 20 20 20 20 19 19 19 19 19 19 19 19 19 19 19 19 19 19 19 18 18 18 18 18 18 18 18 18 18 18 18 18 18 18 18 18 18 18
22 22 22 21 21 20 20 20 19 19 19 19 19 19 19 19 19 19 19 19 19 19 19 18 18 18 18 18 18 18 18 18 18 18 18 18 18 18 18 18 18 18 18
23 22 22 21 21 20 20 20 19 19 19 19 19 19 19 19 19 19 19 19 19 19 18 18 18 18 18 18 18 18 18 18 18 18 18 18 18 18 18 18 18 18 18
23 22 22 21 21 20 20 20 19 19 19 19 19 19 19 19 19 19 19 19 19 19 18 18 18 18 18 18 18 18 18 18 18 17 17 18 18 18 18 18 18 18 18
23 22 22 22 21 20 20 20 20 19 19 19 19 19 19 19 18 18 18 18 18 18 18 18 18 18 18 18 18 18 18 18 17 17 17 17 17 18 18 17 17 17 17
Wind_Speed
3 6 12 14 14 15 16 17 16 16 16 16 16 17 17 17 16 16 15 15 14 14 13 12 12 12 12 12 12 12 12 12 12 12 12 12 12 12 12 12 12 12 13
6 9 14 15 15 16 17 17 17 16 16 16 16 16 16 16 15 14 14 14 13 12 12 11 11 10 10 10 10 10 10 10 10 10 11 11 11 11 11 12 12 11 13
9 11 15 16 16 17 17 16 16 16 16 16 15 15 15 15 14 14 13 13 12 12 11 10 9 9 9 9 9 9 9 8 8 8 9 8 9 10 11 11 12 13 13
10 11 14 16 16 17 17 16 16 15 15 15 15 14 14 14 13 13 13 12 11 11 11 10 9 8 8 8 8 8 7 7 7 6 6 6 7 9 10 11 12 13 13
10 11 14 16 16 17 17 16 15 15 15 14 14 13 13 13 12 12 12 11 10 10 10 8 8 8 7 7 7 6 5 5 4 4 5 6 7 9 10 11 11 12 12
9 11 14 16 17 17 16 16 15 15 14 14 13 13 13 12 11 10 10 10 10 9 9 8 7 7 6 6 5 4 3 3 3 4 4 6 8 9 10 11 11 12 12
9 10 14 17 17 17 16 15 15 14 14 13 12 12 12 11 11 10 10 9 9 9 8 7 7 6 5 5 4 3 2 2 3 5 5 7 8 10 10 11 12 12 12
11 9 13 17 17 16 15 14 14 14 13 12 12 11 11 10 10 9 9 9 8 8 7 7 6 5 5 4 3 2 1 2 4 6 5 7 9 9 10 12 13 13 12
10 9 9 12 14 15 14 13 13 13 12 11 11 10 10 9 9 8 8 8 8 8 7 7 6 5 4 4 3 2 2 3 5 5 6 7 10 10 11 12 13 13 13
9 8 7 9 10 11 11 12 12 12 11 10 9 9 8 8 7 7 7 8 8 8 8 7 6 6 5 5 3 3 2 3 4 5 6 8 10 11 12 12 12 13 12
9 7 6 7 8 9 10 10 10 10 10 9 8 8 7 5 5 6 7 8 8 8 8 7 7 6 6 5 4 4 3 3 5 5 6 9 11 13 13 12 13 13 12
10 8 6 7 7 8 8 8 7 7 7 7 6 6 5 5 5 5 7 8 8 8 8 7 6 5 5 3 3 4 3 4 4 5 6 10 12 13 13 13 13 13 12
11 10 8 7 7 7 5 7 5 5 6 6 6 7 5 4 4 4 4 5 6 6 5 5 5 4 4 4 3 3 4 4 4 5 7 9 12 13 13 13 12 12 12
10 10 9 8 7 6 6 5 5 4 4 5 6 7 6 3 2 3 3 4 4 4 4 4 4 4 4 4 4 4 3 3 5 5 6 9 11 12 13 12 12 11 11
10 10 9 8 7 6 5 4 4 4 4 5 6 6 7 3 2 3 3 3 4 4 4 3 3 3 2 2 3 3 2 4 5 6 7 10 11 12 12 12 11 11 11
10 10 9 9 7 6 4 3 3 4 5 5 5 6 6 5 3 2 2 3 3 5 5 4 3 3 2 1 2 3 3 5 5 6 7 9 11 12 12 12 11 11 11
11 10 9 9 7 6 5 4 3 4 4 4 4 5 6 6 5 3 2 2 3 4 4 3 2 1 1 1 1 2 3 4 5 6 7 8 8 10 11 11 11 11 10
11 10 10 9 8 6 5 3 2 3 3 3 4 4 5 6 5 3 2 2 3 3 2 2 1 1 1 1 1 2 2 2 4 5 6 7 7 7 9 10 10 10 10
12 11 9 8 8 7 5 3 2 2 2 3 3 3 4 5 5 3 2 2 2 2 1 2 1 2 1 1 1 1 1 1 3 4 4 6 7 8 8 8 9 9 9
11 10 9 8 7 6 4 2 1 2 1 2 3 4 4 4 4 3 2 2 2 1 1 1 1 1 1 1 1 0 1 2 2 2 4 5 6 8 8 7 7 8 8
10 9 9 8 7 5 3 3 2 1 1 1 2 3 4 3 4 3 1 2 2 2 2 2 1 1 1 1 2 2 2 1 2 2 2 3 4 6 7 8 7 7 6
12 10 9 8 7 6 4 4 3 3 2 2 1 2 3 2 2 3 2 3 3 2 2 2 1 1 0 1 2 2 2 3 3 2 1 3 3 4 5 7 7 8 7
12 11 11 9 8 7 5 3 2 2 1 1 0 1 1 2 3 3 3 2 2 3 3 2 2 2 1 0 2 3 2 3 2 3 2 2 2 2 3 5 7 8 9
13 11 9 9 8 6 6 5 5 3 3 3 2 2 1 2 2 3 3 2 2 2 3 2 2 2 2 1 1 1 2 3 2 2 3 2 2 3 3 4 5 7 8
12 10 9 8 7 6 6 6 5 3 3 2 1 2 2 1 1 2 2 2 1 1 2 2 1 2 2 2 2 1 0 1 2 2 2 3 2 2 2 3 4 5 7
9 9 9 9 7 7 6 6 5 5 4 3 2 2 2 1 1 1 2 1 1 1 2 3 2 2 2 2 2 1 2 2 1 2 3 3 3 3 2 2 2 4 5
Wind_Direction
146 150 135 129 124 122 122 123 123 123 122 119 117 117 118 120 121 122 123 122 121 122 121 118 116 114 113 113 114 117 121 123 124 123 125 128 132 132 131 129 125 122 122
144 143 135 128 125 124 123 123 121 121 122 121 121 121 122 122 122 123 124 124 124 124 126 124 121 118 117 118 121 125 128 128 127 126 127 131 137 137 135 134 132 132 128
131 134 132 128 126 125 125 124 122 123 123 122 123 124 124 124 123 124 124 125 127 129 128 130 128 125 123 123 125 129 131 130 129 127 124 123 132 136 138 138 137 136 134
131 132 131 129 128 128 128 127 126 126 126 126 127 126 128 127 126 126 128 130 131 134 135 136 135 134 132 130 129 130 131 131 134 132 131 133 135 140 145 144 142 141 141
125 130 134 133 133 131 130 129 130 129 128 128 128 127 130 130 129 131 132 133 135 135 137 139 139 138 138 136 133 131 132 135 137 125 135 143 144 147 151 151 150 149 148
124 131 134 137 137 133 131 132 133 133 133 133 130 128 131 133 133 136 137 138 139 139 139 141 140 138 135 133 132 125 128 135 146 137 135 150 158 159 159 159 157 156 154
128 131 131 134 137 135 134 135 136 135 136 135 134 134 135 137 138 139 142 144 145 147 148 148 148 149 149 146 141 133 129 122 156 153 149 160 168 171 169 167 165 164 162
134 133 135 135 137 137 138 138 137 138 139 139 141 142 144 145 147 150 153 155 157 160 161 163 167 167 168 171 172 168 154 137 148 152 162 174 178 176 173 170 169 169 168
135 134 135 138 139 141 142 143 144 144 145 147 149 152 154 157 159 162 165 166 168 172 175 179 184 191 197 208 216 216 208 169 165 165 175 182 180 176 173 172 174 174 174
138 140 140 140 142 145 147 148 152 154 157 160 161 162 164 168 170 174 176 182 184 188 191 192 197 210 222 227 231 238 229 189 181 186 188 190 187 182 177 176 178 180 180
146 151 150 151 154 156 157 157 161 165 170 172 171 168 171 180 186 190 193 196 197 199 202 204 210 222 233 238 249 258 245 183 179 186 190 193 192 187 184 183 184 186 186
157 164 162 162 164 169 169 164 173 175 178 180 184 183 183 189 198 201 201 205 207 207 209 214 221 231 239 245 259 257 216 198 191 194 198 201 198 193 192 193 191 192 193
163 164 169 171 170 171 164 162 176 179 183 193 200 200 197 194 202 209 201 213 212 209 214 227 235 235 227 223 228 223 208 198 200 201 201 204 201 198 197 197 195 194 195
158 161 164 167 166 167 163 165 172 177 184 199 204 197 183 181 192 194 196 202 198 201 207 218 225 232 240 240 233 222 202 185 192 192 201 202 201 201 198 196 196 196 197
160 162 163 159 162 162 158 175 170 180 186 196 194 185 175 177 183 191 201 208 209 207 209 215 221 232 247 252 226 198 177 179 187 195 198 199 201 204 202 200 199 199 202
162 163 163 157 161 164 165 170 175 175 182 186 189 188 180 175 176 186 201 211 215 216 219 217 217 216 226 211 212 186 190 186 186 194 195 197 203 207 205 203 204 206 208
163 160 163 166 165 168 174 182 177 172 170 180 190 190 183 176 172 178 197 204 213 215 214 210 216 195 207 211 218 211 195 188 186 191 191 195 200 204 206 207 207 209 212
158 158 167 168 167 171 176 187 187 169 162 178 177 175 178 171 167 170 194 212 210 193 181 182 180 182 223 211 215 228 213 181 188 193 189 191 194 199 207 209 209 211 214
160 161 166 162 168 174 173 176 172 160 164 183 172 167 174 169 169 169 195 216 188 168 179 190 167 174 196 229 226 209 207 200 196 193 192 199 197 199 201 208 210 212 216
161 160 162 162 169 166 154 137 110 111 152 165 167 170 172 179 175 172 193 205 173 162 178 173 178 189 194 216 232 220 224 214 212 202 205 202 200 202 203 202 204 213 217
161 161 163 161 169 160 149 148 147 172 194 194 188 171 172 179 183 183 202 190 184 182 196 175 171 188 232 111 71 7 347 306 253 234 213 200 207 209 200 197 196 198 205
168 168 167 168 171 170 170 170 172 173 195 200 197 160 164 174 195 199 197 196 185 178 177 175 151 144 219 129 127 103 0 343 323 283 235 207 212 200 199 202 193 196 200
173 174 175 175 175 177 171 152 133 97 72 57 174 188 195 190 192 188 183 177 178 175 184 193 169 154 171 243 155 147 153 229 294 314 277 242 221 206 210 195 193 201 201
181 177 170 173 175 176 163 157 163 170 187 210 201 199 215 193 185 164 145 151 162 168 165 196 178 172 161 195 251 188 175 171 175 290 317 302 253 223 219 204 196 198 203
178 175 169 165 170 173 168 168 172 180 194 195 181 181 201 214 185 165 156 147 150 164 177 192 183 180 175 176 191 206 204 150 162 174 259 298 313 278 235 214 196 195 203
169 168 167 165 171 178 178 177 170 172 177 174 186 192 211 229 237 199 169 165 169 173 194 196 187 177 186 179 180 171 169 168 194 180 218 246 265 281 275 240 208 200 204
Height
1518 1518 1519 1520 1520 1521 1521 1522 1524 1525 1527 1528 1529 1531 1532 1534 1535 1537 1538 1539 1540 1541 1542 1543 1544 1545 1546 1547 1548 1548 1549 1550 1551 1551 1552 1552 1553 1553 1554 1554 1554 1555 1556
1518 1518 1520 1521 1521 1522 1523 1524 1525 1527 1528 1529 1530 1532 1534 1535 1537 1538 1539 1540 1541 1542 1543 1544 1545 1546 1547 1548 1549 1549 1550 1551 1552 1552 1553 1553 1553 1554 1555 1555 1555 1556 1556
1518 1519 1520 1522 1523 1524 1525 1526 1527 1528 1530 1531 1532 1534 1535 1536 1538 1539 1540 1541 1542 1543 1544 1545 1546 1547 1548 1549 1550 1550 1551 1552 1552 1553 1553 1554 1554 1555 1555 1556 1556 1557 1557
1520 1521 1522 1523 1524 1525 1526 1528 1529 1530 1531 1532 1534 1535 1536 1537 1539 1540 1541 1542 1543 1543 1544 1546 1547 1548 1549 1550 1550 1551 1552 1552 1553 1553 1554 1555 1555 1556 1556 1556 1557 1557 1558
1521 1522 1522 1523 1524 1526 1528 1529 1530 1532 1533 1534 1535 1536 1537 1538 1540 1541 1542 1543 1543 1544 1545 1546 1547 1548 1549 1550 1551 1552 1552 1553 1553 1554 1554 1555 1555 1556 1556 1557 1557 1558 1559
1522 1523 1522 1521 1524 1527 1529 1531 1532 1533 1534 1535 1536 1537 1538 1540 1541 1542 1543 1544 1544 1545 1546 1547 1548 1549 1550 1551 1552 1552 1553 1553 1554 1554 1555 1555 1556 1556 1557 1557 1558 1558 1559
1525 1525 1523 1522 1525 1529 1531 1533 1534 1535 1536 1537 1538 1539 1540 1541 1542 1543 1544 1545 1545 1546 1547 1548 1549 1550 1551 1552 1552 1553 1553 1554 1554 1555 1555 1555 1556 1556 1556 1557 1557 1558 1559
1527 1528 1528 1528 1530 1532 1533 1535 1536 1537 1538 1538 1539 1541 1542 1543 1543 1544 1545 1546 1546 1547 1548 1549 1550 1551 1551 1552 1553 1553 1554 1554 1554 1555 1555 1555 1556 1556 1556 1557 1557 1558 1559
1530 1530 1531 1532 1533 1534 1536 1537 1538 1538 1539 1540 1541 1542 1543 1544 1544 1545 1546 1547 1547 1548 1549 1549 1550 1551 1552 1553 1553 1553 1554 1554 1554 1555 1555 1555 1556 1556 1556 1557 1557 1558 1559
1532 1533 1533 1534 1535 1536 1537 1538 1539 1540 1541 1542 1543 1543 1544 1545 1546 1546 1547 1547 1548 1548 1549 1550 1550 1551 1552 1553 1553 1553 1554 1554 1554 1554 1555 1555 1556 1556 1556 1556 1557 1558 1558
1534 1534 1535 1536 1537 1538 1539 1540 1541 1542 1543 1543 1544 1545 1545 1546 1546 1547 1547 1548 1548 1549 1549 1550 1551 1551 1552 1553 1553 1554 1554 1554 1554 1554 1555 1555 1555 1555 1556 1556 1557 1557 1558
1534 1535 1536 1537 1538 1539 1540 1541 1542 1543 1544 1544 1545 1545 1546 1546 1547 1547 1547 1548 1548 1549 1549 1550 1551 1552 1552 1553 1553 1554 1554 1554 1554 1554 1554 1555 1555 1555 1555 1556 1556 1557 1557
1534 1535 1536 1538 1539 1540 1541 1542 1543 1544 1544 1545 1546 1546 1546 1547 1547 1547 1547 1548 1548 1549 1549 1550 1551 1551 1552 1552 1553 1553 1553 1553 1553 1554 1554 1554 1554 1554 1555 1555 1556 1556 1556
1534 1535 1537 1538 1539 1540 1542 1542 1543 1544 1545 1545 1546 1546 1546 1547 1546 1547 1547 1547 1548 1549 1549 1550 1550 1551 1551 1552 1552 1553 1553 1553 1553 1553 1553 1554 1554 1554 1554 1555 1555 1555 1555
1533 1535 1537 1538 1539 1541 1542 1543 1544 1544 1545 1545 1546 1546 1546 1546 1546 1547 1547 1547 1548 1548 1549 1549 1550 1550 1551 1551 1552 1552 1552 1552 1553 1553 1553 1553 1553 1553 1554 1554 1554 1554 1554
1533 1535 1537 1538 1539 1541 1542 1543 1544 1544 1545 1545 1546 1546 1546 1546 1546 1546 1547 1547 1547 1548 1548 1549 1549 1550 1550 1551 1551 1551 1551 1552 1552 1552 1552 1553 1552 1553 1553 1553 1553 1553 1553
1533 1535 1537 1538 1539 1541 1542 1543 1543 1544 1544 1545 1545 1546 1546 1546 1546 1546 1546 1546 1547 1547 1548 1548 1548 1549 1549 1550 1550 1551 1551 1551 1551 1552 1552 1552 1552 1552 1552 1552 1552 1552 1552
1533 1534 1536 1538 1539 1540 1541 1542 1543 1544 1544 1544 1545 1545 1545 1545 1545 1545 1545 1545 1546 1546 1547 1547 1547 1548 1548 1549 1549 1550 1550 1550 1551 1551 1551 1551 1551 1551 1551 1551 1551 1551 1551
1532 1534 1535 1537 1538 1539 1541 1542 1542 1543 1543 1544 1544 1544 1545 1545 1545 1545 1544 1545 1545 1545 1546 1546 1546 1547 1547 1547 1548 1548 1549 1549 1549 1550 1550 1550 1550 1550 1550 1550 1550 1550 1550
1531 1533 1534 1536 1538 1539 1540 1541 1542 1542 1543 1543 1543 1544 1544 1544 1544 1544 1544 1543 1544 1544 1544 1545 1545 1546 1546 1546 1547 1547 1548 1548 1548 1548 1548 1548 1549 1549 1549 1549 1549 1549 1548
1530 1532 1533 1535 1536 1538 1539 1539 1540 1541 1542 1542 1542 1543 1543 1543 1543 1543 1543 1542 1542 1543 1543 1543 1544 1544 1545 1545 1545 1546 1546 1547 1547 1547 1547 1547 1547 1547 1547 1547 1547 1547 1547
1528 1530 1532 1533 1535 1536 1537 1539 1539 1540 1541 1541 1541 1542 1542 1542 1542 1542 1542 1541 1541 1541 1542 1543 1543 1543 1544 1544 1544 1544 1545 1546 1545 1545 1545 1545 1545 1545 1545 1546 1546 1546 1546
1526 1528 1529 1531 1533 1535 1536 1537 1538 1539 1540 1540 1540 1540 1541 1541 1541 1541 1540 1540 1540 1540 1541 1541 1542 1542 1542 1543 1543 1544 1544 1543 1543 1544 1543 1543 1543 1543 1543 1543 1544 1544 1544
1524 1526 1528 1530 1532 1533 1534 1536 1536 1537 1537 1538 1538 1539 1539 1540 1540 1540 1539 1539 1539 1539 1539 1540 1540 1541 1541 1541 1542 1542 1543 1542 1542 1542 1542 1542 1542 1541 1541 1541 1542 1542 1542
1522 1524 1526 1528 1530 1532 1533 1534 1535 1536 1536 1537 1537 1538 1538 1538 1538 1538 1537 1537 1537 1537 1538 1538 1538 1538 1539 1539 1539 1540 1540 1540 1540 1540 1540 1540 1540 1539 1539 1539 1540 1540 1539
1520 1522 1524 1526 1527 1529 1531 1532 1533 1533 1534 1535 1535 1536 1536 1536 1536 1536 1536 1536 1535 1535 1536 1536 1536 1537 1537 1537 1537 1537 1538 1538 1538 1538 1538 1537 1537 1537 1537 1537 1537 1537 1537